Year,Month,Day,Hour,Minute,Value (Times are PST for windspeed in km/hr)
2010,04,25,00,00,11.30
2010,04,25,00,01,11.80
2010,04,25,00,02,12.90
2010,04,25,00,03,13.50
2010,04,25,00,04,13.20
2010,04,25,00,05,13.00
2010,04,25,00,06,9.90
2010,04,25,00,07,10.00
2010,04,25,00,08,8.80
2010,04,25,00,09,10.40
2010,04,25,00,10,11.50
2010,04,25,00,11,8.80
2010,04,25,00,12,8.60
2010,04,25,00,13,8.00
2010,04,25,00,14,6.40
2010,04,25,00,15,13.90
2010,04,25,00,16,11.20
2010,04,25,00,17,8.20
2010,04,25,00,18,9.90
2010,04,25,00,19,10.90
2010,04,25,00,20,13.70
2010,04,25,00,21,12.40
2010,04,25,00,22,7.40
2010,04,25,00,23,8.50
2010,04,25,00,24,9.30
2010,04,25,00,25,14.60
2010,04,25,00,26,11.10
2010,04,25,00,27,14.50
2010,04,25,00,28,14.30
2010,04,25,00,29,7.90
2010,04,25,00,30,8.70
2010,04,25,00,31,9.20
2010,04,25,00,32,7.00
2010,04,25,00,33,9.20
2010,04,25,00,34,8.20
2010,04,25,00,35,8.00
2010,04,25,00,36,8.90
2010,04,25,00,37,6.90
2010,04,25,00,38,8.00
2010,04,25,00,39,5.00
2010,04,25,00,40,11.90
2010,04,25,00,41,10.00
2010,04,25,00,42,4.10
2010,04,25,00,43,10.50
2010,04,25,00,44,7.60
2010,04,25,00,45,5.30
2010,04,25,00,46,2.20
2010,04,25,00,47,3.40
2010,04,25,00,48,4.70
2010,04,25,00,49,5.00
2010,04,25,00,50,7.80
2010,04,25,00,51,5.00
2010,04,25,00,52,6.60
2010,04,25,00,53,2.00
2010,04,25,00,54,5.80
2010,04,25,00,55,3.40
2010,04,25,00,56,7.30
2010,04,25,00,57,7.90
2010,04,25,00,58,8.00
2010,04,25,00,59,9.40
2010,04,25,01,00,10.60
2010,04,25,01,01,5.20
2010,04,25,01,02,2.90
2010,04,25,01,03,5.80
2010,04,25,01,04,6.00
2010,04,25,01,05,11.00
2010,04,25,01,06,10.90
2010,04,25,01,07,9.10
2010,04,25,01,08,6.10
2010,04,25,01,09,8.00
2010,04,25,01,10,5.90
2010,04,25,01,11,6.40
2010,04,25,01,12,6.00
2010,04,25,01,13,4.30
2010,04,25,01,14,9.50
2010,04,25,01,15,10.80
2010,04,25,01,16,7.20
2010,04,25,01,17,8.50
2010,04,25,01,18,6.40
2010,04,25,01,19,5.10
2010,04,25,01,20,3.10
2010,04,25,01,21,3.70
2010,04,25,01,22,3.90
2010,04,25,01,23,4.60
2010,04,25,01,24,3.20
2010,04,25,01,25,4.10
2010,04,25,01,26,3.60
2010,04,25,01,27,4.30
2010,04,25,01,28,5.60
2010,04,25,01,29,5.20
2010,04,25,01,30,5.90
2010,04,25,01,31,4.70
2010,04,25,01,32,2.80
2010,04,25,01,33,3.50
2010,04,25,01,34,8.80
2010,04,25,01,35,8.10
2010,04,25,01,36,6.50
2010,04,25,01,37,7.10
2010,04,25,01,38,7.50
2010,04,25,01,39,10.50
2010,04,25,01,40,8.30
2010,04,25,01,41,9.00
2010,04,25,01,42,6.80
2010,04,25,01,43,6.00
2010,04,25,01,44,6.60
2010,04,25,01,45,8.40
2010,04,25,01,46,12.00
2010,04,25,01,47,9.70
2010,04,25,01,48,7.80
2010,04,25,01,49,8.40
2010,04,25,01,50,8.60
2010,04,25,01,51,8.40
2010,04,25,01,52,10.00
2010,04,25,01,53,15.40
2010,04,25,01,54,10.80
2010,04,25,01,55,9.20
2010,04,25,01,56,11.80
2010,04,25,01,57,11.90
2010,04,25,01,58,9.20
2010,04,25,01,59,10.10
2010,04,25,02,00,8.50
2010,04,25,02,01,8.60
2010,04,25,02,02,8.80
2010,04,25,02,03,9.90
2010,04,25,02,04,8.90
2010,04,25,02,05,6.60
2010,04,25,02,06,8.60
2010,04,25,02,07,7.40
2010,04,25,02,08,8.80
2010,04,25,02,09,8.50
2010,04,25,02,10,13.80
2010,04,25,02,11,12.60
2010,04,25,02,12,12.10
2010,04,25,02,13,12.00
2010,04,25,02,14,9.40
2010,04,25,02,15,6.80
2010,04,25,02,16,5.70
2010,04,25,02,17,6.10
2010,04,25,02,18,11.10
2010,04,25,02,19,10.20
2010,04,25,02,20,9.90
2010,04,25,02,21,10.20
2010,04,25,02,22,10.20
2010,04,25,02,23,12.00
2010,04,25,02,24,7.00
2010,04,25,02,25,8.20
2010,04,25,02,26,7.60
2010,04,25,02,27,11.60
2010,04,25,02,28,10.70
2010,04,25,02,29,16.60
2010,04,25,02,30,7.70
2010,04,25,02,31,8.90
2010,04,25,02,32,13.00
2010,04,25,02,33,9.90
2010,04,25,02,34,10.40
2010,04,25,02,35,10.30
2010,04,25,02,36,9.70
2010,04,25,02,37,7.30
2010,04,25,02,38,11.20
2010,04,25,02,39,9.00
2010,04,25,02,40,6.70
2010,04,25,02,41,7.90
2010,04,25,02,42,11.80
2010,04,25,02,43,8.70
2010,04,25,02,44,5.90
2010,04,25,02,45,10.40
2010,04,25,02,46,6.70
2010,04,25,02,47,9.30
2010,04,25,02,48,8.90
2010,04,25,02,49,6.60
2010,04,25,02,50,5.60
2010,04,25,02,51,10.70
2010,04,25,02,52,8.40
2010,04,25,02,53,7.50
2010,04,25,02,54,5.80
2010,04,25,02,55,6.90
2010,04,25,02,56,2.20
2010,04,25,02,57,0.40
2010,04,25,02,58,0.00
2010,04,25,02,59,0.50
2010,04,25,03,00,2.10
2010,04,25,03,01,0.50
2010,04,25,03,02,0.30
2010,04,25,03,03,0.00
2010,04,25,03,04,0.00
2010,04,25,03,05,0.00
2010,04,25,03,06,0.00
2010,04,25,03,07,0.10
2010,04,25,03,08,0.50
2010,04,25,03,09,0.40
2010,04,25,03,10,1.20
2010,04,25,03,11,0.00
2010,04,25,03,12,0.00
2010,04,25,03,13,0.00
2010,04,25,03,14,0.10
2010,04,25,03,15,0.50
2010,04,25,03,16,1.20
2010,04,25,03,17,2.80
2010,04,25,03,18,2.80
2010,04,25,03,19,2.70
2010,04,25,03,20,2.50
2010,04,25,03,21,2.60
2010,04,25,03,22,0.10
2010,04,25,03,23,0.70
2010,04,25,03,24,1.60
2010,04,25,03,25,2.70
2010,04,25,03,26,0.10
2010,04,25,03,27,0.80
2010,04,25,03,28,2.60
2010,04,25,03,29,3.30
2010,04,25,03,30,3.60
2010,04,25,03,31,3.00
2010,04,25,03,32,4.20
2010,04,25,03,33,3.40
2010,04,25,03,34,3.90
2010,04,25,03,35,3.00
2010,04,25,03,36,1.50
2010,04,25,03,37,0.70
2010,04,25,03,38,0.10
2010,04,25,03,39,1.10
2010,04,25,03,40,1.40
2010,04,25,03,41,2.60
2010,04,25,03,42,1.00
2010,04,25,03,43,0.80
2010,04,25,03,44,2.00
2010,04,25,03,45,1.80
2010,04,25,03,46,1.10
2010,04,25,03,47,2.60
2010,04,25,03,48,4.70
2010,04,25,03,49,0.80
2010,04,25,03,50,0.40
2010,04,25,03,51,0.00
2010,04,25,03,52,0.10
2010,04,25,03,53,0.00
2010,04,25,03,54,0.00
2010,04,25,03,55,0.00
2010,04,25,03,56,0.00
2010,04,25,03,57,0.00
2010,04,25,03,58,0.00
2010,04,25,03,59,0.00
2010,04,25,04,00,0.00
2010,04,25,04,01,0.00
2010,04,25,04,02,0.00
2010,04,25,04,03,0.00
2010,04,25,04,04,0.40
2010,04,25,04,05,1.50
2010,04,25,04,06,1.20
2010,04,25,04,07,0.40
2010,04,25,04,08,1.30
2010,04,25,04,09,0.90
2010,04,25,04,10,0.50
2010,04,25,04,11,0.00
2010,04,25,04,12,0.10
2010,04,25,04,13,0.00
2010,04,25,04,14,0.00
2010,04,25,04,15,0.00
2010,04,25,04,16,0.00
2010,04,25,04,17,0.00
2010,04,25,04,18,0.00
2010,04,25,04,19,0.30
2010,04,25,04,20,1.00
2010,04,25,04,21,2.30
2010,04,25,04,22,2.50
2010,04,25,04,23,3.70
2010,04,25,04,24,4.60
2010,04,25,04,25,4.30
2010,04,25,04,26,3.70
2010,04,25,04,27,4.60
2010,04,25,04,28,3.50
2010,04,25,04,29,2.70
2010,04,25,04,30,3.90
2010,04,25,04,31,2.40
2010,04,25,04,32,2.60
2010,04,25,04,33,2.90
2010,04,25,04,34,2.90
2010,04,25,04,35,2.00
2010,04,25,04,36,1.60
2010,04,25,04,37,0.20
2010,04,25,04,38,0.40
2010,04,25,04,39,2.00
2010,04,25,04,40,2.30
2010,04,25,04,41,2.40
2010,04,25,04,42,2.20
2010,04,25,04,43,0.20
2010,04,25,04,44,0.90
2010,04,25,04,45,0.20
2010,04,25,04,46,0.30
2010,04,25,04,47,0.20
2010,04,25,04,48,1.90
2010,04,25,04,49,0.60
2010,04,25,04,50,1.00
2010,04,25,04,51,0.50
2010,04,25,04,52,0.60
2010,04,25,04,53,2.90
2010,04,25,04,54,2.20
2010,04,25,04,55,3.50
2010,04,25,04,56,2.70
2010,04,25,04,57,0.90
2010,04,25,04,58,1.80
2010,04,25,04,59,3.40
2010,04,25,05,00,3.20
2010,04,25,05,01,4.20
2010,04,25,05,02,1.80
2010,04,25,05,03,0.20
2010,04,25,05,04,0.10
2010,04,25,05,05,1.40
2010,04,25,05,06,0.30
2010,04,25,05,07,0.10
2010,04,25,05,08,0.70
2010,04,25,05,09,1.80
2010,04,25,05,10,2.80
2010,04,25,05,11,1.00
2010,04,25,05,12,1.10
2010,04,25,05,13,1.00
2010,04,25,05,14,1.50
2010,04,25,05,15,1.00
2010,04,25,05,16,3.40
2010,04,25,05,17,0.70
2010,04,25,05,18,0.90
2010,04,25,05,19,1.40
2010,04,25,05,20,0.70
2010,04,25,05,21,0.20
2010,04,25,05,22,0.80
2010,04,25,05,23,0.80
2010,04,25,05,24,0.60
2010,04,25,05,25,1.30
2010,04,25,05,26,0.10
2010,04,25,05,27,0.00
2010,04,25,05,28,0.00
2010,04,25,05,29,0.00
2010,04,25,05,30,0.10
2010,04,25,05,31,0.40
2010,04,25,05,32,0.80
2010,04,25,05,33,0.40
2010,04,25,05,34,0.00
2010,04,25,05,35,0.40
2010,04,25,05,36,0.70
2010,04,25,05,37,0.00
2010,04,25,05,38,0.00
2010,04,25,05,39,0.00
2010,04,25,05,40,0.00
2010,04,25,05,41,0.00
2010,04,25,05,42,0.10
2010,04,25,05,43,0.10
2010,04,25,05,44,0.00
2010,04,25,05,45,0.60
2010,04,25,05,46,0.70
2010,04,25,05,47,0.60
2010,04,25,05,48,1.50
2010,04,25,05,49,1.70
2010,04,25,05,50,1.70
2010,04,25,05,51,1.30
2010,04,25,05,52,0.30
2010,04,25,05,53,0.10
2010,04,25,05,54,0.10
2010,04,25,05,55,0.10
2010,04,25,05,56,0.00
2010,04,25,05,57,0.40
2010,04,25,05,58,0.40
2010,04,25,05,59,0.70
2010,04,25,06,00,0.20
2010,04,25,06,01,0.20
2010,04,25,06,02,0.70
2010,04,25,06,03,1.80
2010,04,25,06,04,1.20
2010,04,25,06,05,0.50
2010,04,25,06,06,1.30
2010,04,25,06,07,1.10
2010,04,25,06,08,1.10
2010,04,25,06,09,3.70
2010,04,25,06,10,2.50
2010,04,25,06,11,2.10
2010,04,25,06,12,3.30
2010,04,25,06,13,2.50
2010,04,25,06,14,2.70
2010,04,25,06,15,2.80
2010,04,25,06,16,1.30
2010,04,25,06,17,1.20
2010,04,25,06,18,1.70
2010,04,25,06,19,3.00
2010,04,25,06,20,1.30
2010,04,25,06,21,1.20
2010,04,25,06,22,2.40
2010,04,25,06,23,1.00
2010,04,25,06,24,0.50
2010,04,25,06,25,1.50
2010,04,25,06,26,1.60
2010,04,25,06,27,0.90
2010,04,25,06,28,1.30
2010,04,25,06,29,2.00
2010,04,25,06,30,1.00
2010,04,25,06,31,1.20
2010,04,25,06,32,1.80
2010,04,25,06,33,2.20
2010,04,25,06,34,2.60
2010,04,25,06,35,2.00
2010,04,25,06,36,1.40
2010,04,25,06,37,2.00
2010,04,25,06,38,2.80
2010,04,25,06,39,1.90
2010,04,25,06,40,2.90
2010,04,25,06,41,1.70
2010,04,25,06,42,1.50
2010,04,25,06,43,1.80
2010,04,25,06,44,1.20
2010,04,25,06,45,1.20
2010,04,25,06,46,2.40
2010,04,25,06,47,2.40
2010,04,25,06,48,0.70
2010,04,25,06,49,1.10
2010,04,25,06,50,0.40
2010,04,25,06,51,0.10
2010,04,25,06,52,0.10
2010,04,25,06,53,0.30
2010,04,25,06,54,1.20
2010,04,25,06,55,3.40
2010,04,25,06,56,1.90
2010,04,25,06,57,3.10
2010,04,25,06,58,2.10
2010,04,25,06,59,3.00
2010,04,25,07,00,1.70
2010,04,25,07,01,2.30
2010,04,25,07,02,0.20
2010,04,25,07,03,0.80
2010,04,25,07,04,1.30
2010,04,25,07,05,1.00
2010,04,25,07,06,2.90
2010,04,25,07,07,2.50
2010,04,25,07,08,3.80
2010,04,25,07,09,1.50
2010,04,25,07,10,2.20
2010,04,25,07,11,4.60
2010,04,25,07,12,3.10
2010,04,25,07,13,3.10
2010,04,25,07,14,2.90
2010,04,25,07,15,2.50
2010,04,25,07,16,1.00
2010,04,25,07,17,2.40
2010,04,25,07,18,1.80
2010,04,25,07,19,2.90
2010,04,25,07,20,3.70
2010,04,25,07,21,4.10
2010,04,25,07,22,2.80
2010,04,25,07,23,2.40
2010,04,25,07,24,2.90
2010,04,25,07,25,3.40
2010,04,25,07,26,1.80
2010,04,25,07,27,2.00
2010,04,25,07,28,4.50
2010,04,25,07,29,1.70
2010,04,25,07,30,2.10
2010,04,25,07,31,1.80
2010,04,25,07,32,1.10
2010,04,25,07,33,1.10
2010,04,25,07,34,1.10
2010,04,25,07,35,1.90
2010,04,25,07,36,0.30
2010,04,25,07,37,0.40
2010,04,25,07,38,0.70
2010,04,25,07,39,0.80
2010,04,25,07,40,1.50
2010,04,25,07,41,0.40
2010,04,25,07,42,0.70
2010,04,25,07,43,1.70
2010,04,25,07,44,1.90
2010,04,25,07,45,1.10
2010,04,25,07,46,1.10
2010,04,25,07,47,2.70
2010,04,25,07,48,2.20
2010,04,25,07,49,1.30
2010,04,25,07,50,1.20
2010,04,25,07,51,3.00
2010,04,25,07,52,0.60
2010,04,25,07,53,1.00
2010,04,25,07,54,1.80
2010,04,25,07,55,1.90
2010,04,25,07,56,1.30
2010,04,25,07,57,2.90
2010,04,25,07,58,2.60
2010,04,25,07,59,3.00
2010,04,25,08,00,2.40
2010,04,25,08,01,3.60
2010,04,25,08,02,4.30
2010,04,25,08,03,4.30
2010,04,25,08,04,1.10
2010,04,25,08,05,1.00
2010,04,25,08,06,1.20
2010,04,25,08,07,1.70
2010,04,25,08,08,0.50
2010,04,25,08,09,0.80
2010,04,25,08,10,1.20
2010,04,25,08,11,3.70
2010,04,25,08,12,3.20
2010,04,25,08,13,5.00
2010,04,25,08,14,2.10
2010,04,25,08,15,1.20
2010,04,25,08,16,0.80
2010,04,25,08,17,1.60
2010,04,25,08,18,1.70
2010,04,25,08,19,0.10
2010,04,25,08,20,3.20
2010,04,25,08,21,1.00
2010,04,25,08,22,3.90
2010,04,25,08,23,3.60
2010,04,25,08,24,2.90
2010,04,25,08,25,3.10
2010,04,25,08,26,5.70
2010,04,25,08,27,4.90
2010,04,25,08,28,2.60
2010,04,25,08,29,3.00
2010,04,25,08,30,5.70
2010,04,25,08,31,3.90
2010,04,25,08,32,2.20
2010,04,25,08,33,5.10
2010,04,25,08,34,3.40
2010,04,25,08,35,6.10
2010,04,25,08,36,2.90
2010,04,25,08,37,6.30
2010,04,25,08,38,6.80
2010,04,25,08,39,5.10
2010,04,25,08,40,5.30
2010,04,25,08,41,6.00
2010,04,25,08,42,8.10
2010,04,25,08,43,6.90
2010,04,25,08,44,5.00
2010,04,25,08,45,7.00
2010,04,25,08,46,3.50
2010,04,25,08,47,4.50
2010,04,25,08,48,5.60
2010,04,25,08,49,3.20
2010,04,25,08,50,3.50
2010,04,25,08,51,5.60
2010,04,25,08,52,1.40
2010,04,25,08,53,2.90
2010,04,25,08,54,4.80
2010,04,25,08,55,5.80
2010,04,25,08,56,7.50
2010,04,25,08,57,6.10
2010,04,25,08,58,3.70
2010,04,25,08,59,2.70
2010,04,25,09,00,4.30
2010,04,25,09,01,2.10
2010,04,25,09,02,2.80
2010,04,25,09,03,7.40
2010,04,25,09,04,7.50
2010,04,25,09,05,4.50
2010,04,25,09,06,3.10
2010,04,25,09,07,6.00
2010,04,25,09,08,5.40
2010,04,25,09,09,5.20
2010,04,25,09,10,5.90
2010,04,25,09,11,5.30
2010,04,25,09,12,5.80
2010,04,25,09,13,6.80
2010,04,25,09,14,5.60
2010,04,25,09,15,5.20
2010,04,25,09,16,5.50
2010,04,25,09,17,6.20
2010,04,25,09,18,6.80
2010,04,25,09,19,5.00
2010,04,25,09,20,5.70
2010,04,25,09,21,4.20
2010,04,25,09,22,1.80
2010,04,25,09,23,5.90
2010,04,25,09,24,6.80
2010,04,25,09,25,4.90
2010,04,25,09,26,6.60
2010,04,25,09,27,8.00
2010,04,25,09,28,5.90
2010,04,25,09,29,8.60
2010,04,25,09,30,5.50
2010,04,25,09,31,3.60
2010,04,25,09,32,1.50
2010,04,25,09,33,5.00
2010,04,25,09,34,2.40
2010,04,25,09,35,4.50
2010,04,25,09,36,7.20
2010,04,25,09,37,7.80
2010,04,25,09,38,3.40
2010,04,25,09,39,3.40
2010,04,25,09,40,1.80
2010,04,25,09,41,3.40
2010,04,25,09,42,0.70
2010,04,25,09,43,0.90
2010,04,25,09,44,2.90
2010,04,25,09,45,3.50
2010,04,25,09,46,8.90
2010,04,25,09,47,3.80
2010,04,25,09,48,0.20
2010,04,25,09,49,4.50
2010,04,25,09,50,5.80
2010,04,25,09,51,2.10
2010,04,25,09,52,3.60
2010,04,25,09,53,3.80
2010,04,25,09,54,2.70
2010,04,25,09,55,5.90
2010,04,25,09,56,5.10
2010,04,25,09,57,4.00
2010,04,25,09,58,5.60
2010,04,25,09,59,2.40
2010,04,25,10,00,3.00
2010,04,25,10,01,9.30
2010,04,25,10,02,9.30
2010,04,25,10,03,5.90
2010,04,25,10,04,7.30
2010,04,25,10,05,5.60
2010,04,25,10,06,7.40
2010,04,25,10,07,5.30
2010,04,25,10,08,4.30
2010,04,25,10,09,4.70
2010,04,25,10,10,6.40
2010,04,25,10,11,4.30
2010,04,25,10,12,4.30
2010,04,25,10,13,3.90
2010,04,25,10,14,2.90
2010,04,25,10,15,3.30
2010,04,25,10,16,3.10
2010,04,25,10,17,6.70
2010,04,25,10,18,5.20
2010,04,25,10,19,3.30
2010,04,25,10,20,0.30
2010,04,25,10,21,0.50
2010,04,25,10,22,2.40
2010,04,25,10,23,4.90
2010,04,25,10,24,2.00
2010,04,25,10,25,5.30
2010,04,25,10,26,6.40
2010,04,25,10,27,9.60
2010,04,25,10,28,7.10
2010,04,25,10,29,9.60
2010,04,25,10,30,6.70
2010,04,25,10,31,4.80
2010,04,25,10,32,6.90
2010,04,25,10,33,5.40
2010,04,25,10,34,5.30
2010,04,25,10,35,4.90
2010,04,25,10,36,4.10
2010,04,25,10,37,1.50
2010,04,25,10,38,1.20
2010,04,25,10,39,3.70
2010,04,25,10,40,1.80
2010,04,25,10,41,4.90
2010,04,25,10,42,8.40
2010,04,25,10,43,4.00
2010,04,25,10,44,3.60
2010,04,25,10,45,3.90
2010,04,25,10,46,3.80
2010,04,25,10,47,6.10
2010,04,25,10,48,4.20
2010,04,25,10,49,4.10
2010,04,25,10,50,4.00
2010,04,25,10,51,5.20
2010,04,25,10,52,2.20
2010,04,25,10,53,1.10
2010,04,25,10,54,2.10
2010,04,25,10,55,1.00
2010,04,25,10,56,6.90
2010,04,25,10,57,6.20
2010,04,25,10,58,7.80
2010,04,25,10,59,5.10
2010,04,25,11,00,6.00
2010,04,25,11,01,3.50
2010,04,25,11,02,1.70
2010,04,25,11,03,2.40
2010,04,25,11,04,2.50
2010,04,25,11,05,3.90
2010,04,25,11,06,6.80
2010,04,25,11,07,5.00
2010,04,25,11,08,5.00
2010,04,25,11,09,4.00
2010,04,25,11,10,3.60
2010,04,25,11,11,3.50
2010,04,25,11,12,1.90
2010,04,25,11,13,4.40
2010,04,25,11,14,6.20
2010,04,25,11,15,4.10
2010,04,25,11,16,7.20
2010,04,25,11,17,6.90
2010,04,25,11,18,2.00
2010,04,25,11,19,2.10
2010,04,25,11,20,2.90
2010,04,25,11,21,5.60
2010,04,25,11,22,10.10
2010,04,25,11,23,2.90
2010,04,25,11,24,6.90
2010,04,25,11,25,8.80
2010,04,25,11,26,9.60
2010,04,25,11,27,9.60
2010,04,25,11,28,9.60
2010,04,25,11,29,9.00
2010,04,25,11,30,13.30
2010,04,25,11,31,8.70
2010,04,25,11,32,6.20
2010,04,25,11,33,10.50
2010,04,25,11,34,7.70
2010,04,25,11,35,4.70
2010,04,25,11,36,3.40
2010,04,25,11,37,6.20
2010,04,25,11,38,11.30
2010,04,25,11,39,9.20
2010,04,25,11,40,10.10
2010,04,25,11,41,9.80
2010,04,25,11,42,12.20
2010,04,25,11,43,11.50
2010,04,25,11,44,7.20
2010,04,25,11,45,6.00
2010,04,25,11,46,8.30
2010,04,25,11,47,5.70
2010,04,25,11,48,6.60
2010,04,25,11,49,3.50
2010,04,25,11,50,4.90
2010,04,25,11,51,6.80
2010,04,25,11,52,8.60
2010,04,25,11,53,6.40
2010,04,25,11,54,3.50
2010,04,25,11,55,4.20
2010,04,25,11,56,4.50
2010,04,25,11,57,4.40
2010,04,25,11,58,8.90
2010,04,25,11,59,5.90
2010,04,25,12,00,3.50
2010,04,25,12,01,5.10
2010,04,25,12,02,10.70
2010,04,25,12,03,4.40
2010,04,25,12,04,1.50
2010,04,25,12,05,4.30
2010,04,25,12,06,2.10
2010,04,25,12,07,5.10
2010,04,25,12,08,8.50
2010,04,25,12,09,10.90
2010,04,25,12,10,4.40
2010,04,25,12,11,6.70
2010,04,25,12,12,1.00
2010,04,25,12,13,1.80
2010,04,25,12,14,3.10
2010,04,25,12,15,1.40
2010,04,25,12,16,6.00
2010,04,25,12,17,9.30
2010,04,25,12,18,6.20
2010,04,25,12,19,3.20
2010,04,25,12,20,8.20
2010,04,25,12,21,5.60
2010,04,25,12,22,8.20
2010,04,25,12,23,7.60
2010,04,25,12,24,6.20
2010,04,25,12,25,10.60
2010,04,25,12,26,8.40
2010,04,25,12,27,7.60
2010,04,25,12,28,5.70
2010,04,25,12,29,3.50
2010,04,25,12,30,4.50
2010,04,25,12,31,6.20
2010,04,25,12,32,8.30
2010,04,25,12,33,8.10
2010,04,25,12,34,9.00
2010,04,25,12,35,7.10
2010,04,25,12,36,8.70
2010,04,25,12,37,8.50
2010,04,25,12,38,11.10
2010,04,25,12,39,8.40
2010,04,25,12,40,9.10
2010,04,25,12,41,7.60
2010,04,25,12,42,8.90
2010,04,25,12,43,5.20
2010,04,25,12,44,4.80
2010,04,25,12,45,5.60
2010,04,25,12,46,4.30
2010,04,25,12,47,2.70
2010,04,25,12,48,10.10
2010,04,25,12,49,4.90
2010,04,25,12,50,7.10
2010,04,25,12,51,8.50
2010,04,25,12,52,2.40
2010,04,25,12,53,0.80
2010,04,25,12,54,2.70
2010,04,25,12,55,2.50
2010,04,25,12,56,6.00
2010,04,25,12,57,1.80
2010,04,25,12,58,1.70
2010,04,25,12,59,4.10
2010,04,25,13,00,4.90
2010,04,25,13,01,6.60
2010,04,25,13,02,6.00
2010,04,25,13,03,4.80
2010,04,25,13,04,7.20
2010,04,25,13,05,4.30
2010,04,25,13,06,5.60
2010,04,25,13,07,5.70
2010,04,25,13,08,4.00
2010,04,25,13,09,4.00
2010,04,25,13,10,6.10
2010,04,25,13,11,13.80
2010,04,25,13,12,7.40
2010,04,25,13,13,6.00
2010,04,25,13,14,7.90
2010,04,25,13,15,9.00
2010,04,25,13,16,6.00
2010,04,25,13,17,3.10
2010,04,25,13,18,5.90
2010,04,25,13,19,3.70
2010,04,25,13,20,6.70
2010,04,25,13,21,8.50
2010,04,25,13,22,7.70
2010,04,25,13,23,11.50
2010,04,25,13,24,5.40
2010,04,25,13,25,7.40
2010,04,25,13,26,6.50
2010,04,25,13,27,4.10
2010,04,25,13,28,5.70
2010,04,25,13,29,2.00
2010,04,25,13,30,7.70
2010,04,25,13,31,5.50
2010,04,25,13,32,4.30
2010,04,25,13,33,2.00
2010,04,25,13,34,3.10
2010,04,25,13,35,0.90
2010,04,25,13,36,2.80
2010,04,25,13,37,4.40
2010,04,25,13,38,6.20
2010,04,25,13,39,5.00
2010,04,25,13,40,9.90
2010,04,25,13,41,5.50
2010,04,25,13,42,5.80
2010,04,25,13,43,7.40
2010,04,25,13,44,13.20
2010,04,25,13,45,5.70
2010,04,25,13,46,6.50
2010,04,25,13,47,3.70
2010,04,25,13,48,4.30
2010,04,25,13,49,7.40
2010,04,25,13,50,8.20
2010,04,25,13,51,7.20
2010,04,25,13,52,8.10
2010,04,25,13,53,5.00
2010,04,25,13,54,6.40
2010,04,25,13,55,4.80
2010,04,25,13,56,0.80
2010,04,25,13,57,7.70
2010,04,25,13,58,14.10
2010,04,25,13,59,6.10
2010,04,25,14,00,4.50
2010,04,25,14,01,10.80
2010,04,25,14,02,7.70
2010,04,25,14,03,6.70
2010,04,25,14,04,4.50
2010,04,25,14,05,5.60
2010,04,25,14,06,5.70
2010,04,25,14,07,9.10
2010,04,25,14,08,9.40
2010,04,25,14,09,7.50
2010,04,25,14,10,7.50
2010,04,25,14,11,8.70
2010,04,25,14,12,9.60
2010,04,25,14,13,10.70
2010,04,25,14,14,4.60
2010,04,25,14,15,9.70
2010,04,25,14,16,7.90
2010,04,25,14,17,7.70
2010,04,25,14,18,1.80
2010,04,25,14,19,2.10
2010,04,25,14,20,7.80
2010,04,25,14,21,7.20
2010,04,25,14,22,9.50
2010,04,25,14,23,5.30
2010,04,25,14,24,4.30
2010,04,25,14,25,4.50
2010,04,25,14,26,6.00
2010,04,25,14,27,7.70
2010,04,25,14,28,2.40
2010,04,25,14,29,0.80
2010,04,25,14,30,5.50
2010,04,25,14,31,4.40
2010,04,25,14,32,6.20
2010,04,25,14,33,7.50
2010,04,25,14,34,5.50
2010,04,25,14,35,6.40
2010,04,25,14,36,3.10
2010,04,25,14,37,7.70
2010,04,25,14,38,5.60
2010,04,25,14,39,2.90
2010,04,25,14,40,2.90
2010,04,25,14,41,3.90
2010,04,25,14,42,7.20
2010,04,25,14,43,7.30
2010,04,25,14,44,3.90
2010,04,25,14,45,5.30
2010,04,25,14,46,6.40
2010,04,25,14,47,5.90
2010,04,25,14,48,3.80
2010,04,25,14,49,7.10
2010,04,25,14,50,6.00
2010,04,25,14,51,4.70
2010,04,25,14,52,6.70
2010,04,25,14,53,4.90
2010,04,25,14,54,4.90
2010,04,25,14,55,6.50
2010,04,25,14,56,5.30
2010,04,25,14,57,5.50
2010,04,25,14,58,2.80
2010,04,25,14,59,4.80
2010,04,25,15,00,5.50
2010,04,25,15,01,1.60
2010,04,25,15,02,1.10
2010,04,25,15,03,6.50
2010,04,25,15,04,6.60
2010,04,25,15,05,4.80
2010,04,25,15,06,6.10
2010,04,25,15,07,6.00
2010,04,25,15,08,6.60
2010,04,25,15,09,7.10
2010,04,25,15,10,6.50
2010,04,25,15,11,2.30
2010,04,25,15,12,3.90
2010,04,25,15,13,4.20
2010,04,25,15,14,4.00
2010,04,25,15,15,2.30
2010,04,25,15,16,2.70
2010,04,25,15,17,4.00
2010,04,25,15,18,2.30
2010,04,25,15,19,6.20
2010,04,25,15,20,3.90
2010,04,25,15,21,4.50
2010,04,25,15,22,2.90
2010,04,25,15,23,3.10
2010,04,25,15,24,2.80
2010,04,25,15,25,1.90
2010,04,25,15,26,6.30
2010,04,25,15,27,11.00
2010,04,25,15,28,10.40
2010,04,25,15,29,7.00
2010,04,25,15,30,5.70
2010,04,25,15,31,4.70
2010,04,25,15,32,4.40
2010,04,25,15,33,5.00
2010,04,25,15,34,1.40
2010,04,25,15,35,5.70
2010,04,25,15,36,4.30
2010,04,25,15,37,6.90
2010,04,25,15,38,4.10
2010,04,25,15,39,4.60
2010,04,25,15,40,8.30
2010,04,25,15,41,11.60
2010,04,25,15,42,8.30
2010,04,25,15,43,2.60
2010,04,25,15,44,2.40
2010,04,25,15,45,1.50
2010,04,25,15,46,3.30
2010,04,25,15,47,4.80
2010,04,25,15,48,7.60
2010,04,25,15,49,5.60
2010,04,25,15,50,7.30
2010,04,25,15,51,9.80
2010,04,25,15,52,8.30
2010,04,25,15,53,6.40
2010,04,25,15,54,5.80
2010,04,25,15,55,7.60
2010,04,25,15,56,5.00
2010,04,25,15,57,6.80
2010,04,25,15,58,8.90
2010,04,25,15,59,7.70
2010,04,25,16,00,11.60
2010,04,25,16,01,6.60
2010,04,25,16,02,5.40
2010,04,25,16,03,4.40
2010,04,25,16,04,7.60
2010,04,25,16,05,9.70
2010,04,25,16,06,6.90
2010,04,25,16,07,7.50
2010,04,25,16,08,4.30
2010,04,25,16,09,7.30
2010,04,25,16,10,8.20
2010,04,25,16,11,11.80
2010,04,25,16,12,9.60
2010,04,25,16,13,6.90
2010,04,25,16,14,5.50
2010,04,25,16,15,4.60
2010,04,25,16,16,4.00
2010,04,25,16,17,2.80
2010,04,25,16,18,3.10
2010,04,25,16,19,1.10
2010,04,25,16,20,2.60
2010,04,25,16,21,6.00
2010,04,25,16,22,8.40
2010,04,25,16,23,6.50
2010,04,25,16,24,6.40
2010,04,25,16,25,5.40
2010,04,25,16,26,8.70
2010,04,25,16,27,9.20
2010,04,25,16,28,11.10
2010,04,25,16,29,7.70
2010,04,25,16,30,7.50
2010,04,25,16,31,4.80
2010,04,25,16,32,8.30
2010,04,25,16,33,10.40
2010,04,25,16,34,10.20
2010,04,25,16,35,5.20
2010,04,25,16,36,6.90
2010,04,25,16,37,7.00
2010,04,25,16,38,11.00
2010,04,25,16,39,8.80
2010,04,25,16,40,9.50
2010,04,25,16,41,8.10
2010,04,25,16,42,5.30
2010,04,25,16,43,7.80
2010,04,25,16,44,7.10
2010,04,25,16,45,6.70
2010,04,25,16,46,6.60
2010,04,25,16,47,6.70
2010,04,25,16,48,6.60
2010,04,25,16,49,8.80
2010,04,25,16,50,6.30
2010,04,25,16,51,4.70
2010,04,25,16,52,6.60
2010,04,25,16,53,6.10
2010,04,25,16,54,7.20
2010,04,25,16,55,3.10
2010,04,25,16,56,5.60
2010,04,25,16,57,8.50
2010,04,25,16,58,3.80
2010,04,25,16,59,3.00
2010,04,25,17,00,2.80
2010,04,25,17,01,7.20
2010,04,25,17,02,6.60
2010,04,25,17,03,1.90
2010,04,25,17,04,5.90
2010,04,25,17,05,6.10
2010,04,25,17,06,4.70
2010,04,25,17,07,3.40
2010,04,25,17,08,2.00
2010,04,25,17,09,8.30
2010,04,25,17,10,8.60
2010,04,25,17,11,3.90
2010,04,25,17,12,5.80
2010,04,25,17,13,10.00
2010,04,25,17,14,5.80
2010,04,25,17,15,6.90
2010,04,25,17,16,8.20
2010,04,25,17,17,10.50
2010,04,25,17,18,7.60
2010,04,25,17,19,9.00
2010,04,25,17,20,6.10
2010,04,25,17,21,8.40
2010,04,25,17,22,11.40
2010,04,25,17,23,11.70
2010,04,25,17,24,11.40
2010,04,25,17,25,13.80
2010,04,25,17,26,8.40
2010,04,25,17,27,7.90
2010,04,25,17,28,9.70
2010,04,25,17,29,10.40
2010,04,25,17,30,8.80
2010,04,25,17,31,10.20
2010,04,25,17,32,7.90
2010,04,25,17,33,10.00
2010,04,25,17,34,8.20
2010,04,25,17,35,5.40
2010,04,25,17,36,7.20
2010,04,25,17,37,7.80
2010,04,25,17,38,8.50
2010,04,25,17,39,7.00
2010,04,25,17,40,7.90
2010,04,25,17,41,6.00
2010,04,25,17,42,5.40
2010,04,25,17,43,9.50
2010,04,25,17,44,12.00
2010,04,25,17,45,6.40
2010,04,25,17,46,7.40
2010,04,25,17,47,6.40
2010,04,25,17,48,4.90
2010,04,25,17,49,2.40
2010,04,25,17,50,4.90
2010,04,25,17,51,3.80
2010,04,25,17,52,6.10
2010,04,25,17,53,1.60
2010,04,25,17,54,5.90
2010,04,25,17,55,5.80
2010,04,25,17,56,5.70
2010,04,25,17,57,8.20
2010,04,25,17,58,6.60
2010,04,25,17,59,7.20
2010,04,25,18,00,8.10
2010,04,25,18,01,5.80
2010,04,25,18,02,4.60